TIANWANG 1B (TW-1B)
1 40927U 15051C   19087.34997948  .00008134  00000-0  13471-3 0  9997
2 40927  97.1501 133.2070 0007838 338.8448 149.8716 15.52399941197233
TIANWANG 1A (TW-1A)
1 40928U 15051D   19087.33176532  .00002577  00000-0  65998-4 0  9992
2 40928  97.1555 120.4451 0011950  22.6331 108.1410 15.40237015196499
LAPAN A2
1 40931U 15052B   19086.87861213  .00000700  00000-0  84640-5 0  9994
2 40931   6.0004 287.0461 0012621  63.0457 297.0959 14.76601267189003
LQSAT
1 40958U 15057A   19087.30517507  .00000008  00000-0  89004-5 0  9991
2 40958  97.9060 158.6953 0019156 141.8686 218.3891 14.73070802186674
CHUBUSAT 2
1 41338U 16012B   19086.05259727  .00000349  00000-0  20492-4 0  9997
2 41338  31.0035 316.2936 0013810 354.0616   5.9854 15.00112229170340
CHUBUSAT 3
1 41339U 16012C   19087.02992392  .00000268  00000-0  14109-4 0  9996
2 41339  31.0111 308.2889 0013551  11.1759 348.9168 15.00290203170487
OUFTI-1
1 41458U 16025C   19087.18191595  .00000609  00000-0  35837-4 0  9995
2 41458  98.1011 169.8468 0166221 274.4781  83.7568 15.05501349160161
E-STAR-2
1 41459U 16025D   19087.44523947  .00000784  00000-0  44984-4 0  9992
2 41459  98.1007 169.8305 0167354 274.7448  83.4700 15.05168290160178
AAUSAT 4
1 41460U 16025E   19087.38769477  .00000718  00000-0  40894-4 0  9990
2 41460  98.0986 170.8202 0157363 268.3745  89.9453 15.06925281160270
NUSAT 1
1 41557U 16033B   19087.41630468  .00001266  00000-0  50514-4 0  9996
2 41557  97.4187 175.4088 0012837 223.5591 136.4635 15.26977392157531
BEESAT 4
1 41619U 16040W   19086.92785601 +.00001265 +00000-0 +56938-4 0  9993
2 41619 097.3768 150.6647 0010183 321.1184 038.9320 15.22878689141260
PRATHAM
1 41783U 16059A   19087.38964269  .00000030  00000-0  15176-4 0  9993
2 41783  98.0774 148.7483 0032215 283.2283  76.5326 14.62979706133519
ALSAT 1N
1 41789U 16059G   19087.17503961  .00000074  00000-0  23101-4 0  9999
2 41789  98.0791 150.3542 0026649 274.0286  85.7869 14.64225004133571
NAYIF 1
1 42017U 17008BX  19086.84628278 +.00001422 +00000-0 +59392-4 0  9990
2 42017 097.4113 154.7719 0007993 100.1642 260.0498 15.25260284117291
LILACSAT-1
1 42725U 98067ME  19087.16875198  .04940946  12203-4  71857-3 0  9999
2 42725  51.6125 322.8483 0008347 256.6037 103.6564 16.33724393105476
MAX VALIER SAT
1 42778U 17036P   19087.40920312  .00000893  00000-0  42267-4 0  9996
2 42778  97.3644 146.8521 0013517 147.1630 213.0449 15.21838841 97728
